This is the latest recevied weather packets stored in our database for station/object OH5GWF-1. If no packets are shown the sender has not sent any weather packets the latest 1 day(s).
| Time | Temp. | Humidity | Pressure | Rain* | Wind** | Luminosity | Snow |
|---|---|---|---|---|---|---|---|
| 1778113321 | -1.11° C | 79% | 1015.7 hPa | 0 mm | - | - | - |
| 1778112488 | -1.11° C | 81% | 1015.6 hPa | 0 mm | - | - | - |
| 1778110813 | -0.56° C | 83% | 1015.5 hPa | 0 mm | - | - | - |
| 1778108283 | 0° C | 82% | 1015.4 hPa | 0 mm | - | - | - |
| 1778107032 | 0° C | 78% | 1015.5 hPa | 0 mm | - | - | - |
| 1778106610 | 0.56° C | 77% | 1015.5 hPa | 0 mm | - | - | - |
| 1778106186 | 0.56° C | 77% | 1015.4 hPa | 0 mm | - | - | - |
| 1778104510 | 1.11° C | 74% | 1015 hPa | 0 mm | - | - | - |
| 1778102832 | 0.56° C | 69% | 1014.8 hPa | 0 mm | - | - | - |
| 1778100722 | 1.11° C | 68% | 1014.5 hPa | 0 mm | - | - | - |
| 1778100312 | 1.11° C | 68% | 1014.6 hPa | 0 mm | - | - | - |
| 1778099891 | 1.11° C | 66% | 1014.6 hPa | 0 mm | - | - | - |
| 1778099470 | 1.11° C | 65% | 1014.5 hPa | 0 mm | - | - | - |
| 1778096949 | 1.67° C | 59% | 1014.2 hPa | 0 mm | - | - | - |
| 1778094422 | 2.78° C | 52% | 1014.1 hPa | 0 mm | - | - | - |
| 1778093592 | 3.33° C | 48% | 1014.1 hPa | 0 mm | - | - | - |
| 1778093170 | 3.33° C | 47% | 1014.1 hPa | 0 mm | - | - | - |
| 1778092748 | 3.89° C | 44% | 1014 hPa | 0 mm | - | - | - |
| 1778092325 | 3.89° C | 42% | 1014 hPa | 0 mm | - | - | - |
| 1778089806 | 6.11° C | 38% | 1013.7 hPa | 0 mm | - | - | - |
| 1778089385 | 6.67° C | 37% | 1013.7 hPa | 0 mm | - | - | - |
| 1778088964 | 7.22° C | 37% | 1013.8 hPa | 0 mm | - | - | - |
| 1778088542 | 7.78° C | 37% | 1013.7 hPa | 0 mm | - | - | - |
| 1778087710 | 8.33° C | 36% | 1013.7 hPa | 0 mm | - | - | - |
| 1778086866 | 8.89° C | 35% | 1013.5 hPa | 0 mm | - | - | - |
* Rain latest hour (hover to see other rain measurements)
** Current wind speed in m/s (hover to see current wind gust speed)